Find ABS-3A

NORAD ID: 40424 Int'l Des: 2015-010 Owner: AGSL Country: PG operational
HEOCIRCULARGSOGEO

現在のビュー

3D地球を読み込み中...

ABS-3Aについて

説明を読み込み中...

次回通過

Passes for default location (London). Set your location on the main map for personalized predictions.

高度履歴

Loading altitude history...

軌道要素

1 40424U 15010A 26151.00154980 -.00000014 00000-0 00000+0 0 9998
2 40424 0.0104 330.6614 0001670 55.3118 220.0983 1.00270259 41208
Epoch: May 31, 2026 • Age: 15 hours

現在のステータス

高度 35785.7 km
速度 3.07 km/s
衛星直下点 0.02°N, 2.99°W
打ち上げ日 Mar 2, 2015
運用期間 11.2 years
タイプ other

技術仕様

分類 Payload
質量 1954.00 kg
乾燥質量 1500.00 kg
総質量 1954.00 kg
長さ 4.60 m
直径 2.10 m
スパン 40.00 m
形状 Box + 2 Pan
製造者 BOES
バスタイプ BSS-702SP
フェーズステータス In Orbit
所有者/国 AGSL/PG

Most Searched